Starlink 30110

decayed
NORAD ID: 57474 Int'l Des: 2023-107 Owner: SPXS Country: US Constellation: starlink
LEOCIRCULAR

关于 Starlink 30110

正在加载描述...

高度历史

Altitude vs Time

uPlot chart will show altitude changes over time

两行轨道根数

1 57474U 23107T 26036.40392421 .07254328 89620-5 11140-2 0 9992
2 57474 42.9655 51.3486 0016028 147.9782 212.2085 16.32642481141454
Epoch: Feb 5, 2026 • Age: 893 hours

当前状态

Position data unavailable
发射日期 Jul 28, 2023
运行时间 2.6 years
衰减日期 Feb 5, 2026
类型 internet

技术详情

分类 Payload
质量 730.00 kg
干质量 700.00 kg
总质量 730.00 kg
长度 0.30 m
直径 4.10 m
跨度 29.00 m
形状 Box + pan
制造商 SPXS
平台类型 Starlink V2M
阶段状态 Unknown Transfer Status
所有者/国家 SPXS/US

大型星座

Loading constellations...